Location: Bishop�s Knoyle
(51.0728°N, 2.1714°W)
Time: 00:41:28
(UTC+00:00)

Nauka - Pass Details

Date: 01 October 2021
Orbit: 417 x 423 km, 51.6° (Epoch: 24 October)

Event Time Altitude Azimuth Distance (km) Brightness Sun altitude
Rises 18:13:21 0° 282° (WNW) 2,365 ? -5.1°
Reaches altitude 10° 18:15:27 10° 281° (W) 1,501 ? -5.4°
Maximum altitude 18:18:49 81° 195° (SSW) 430 ? -6.0°
Drops below altitude 10° 18:22:11 10° 107° (ESE) 1,500 ? -6.5°
Enters shadow 18:22:34 - 107° (ESE) 1,660 ? -6.5°
